Showing default

GUANGCHUAN 02, 62112

Orbit data source: Space-Track

GUANGCHUAN 02, 62112 is a Chinese payload satellite in LEO that was launched on Wed, 27 Nov 2024 UTC via a ZHUQUE-2E launch vehicle from the Jiuquan Satellite Launch Center, China (JSC). Payloads include a variety of satellites, spacecraft, and rockets equipped with specific instruments for various scientific and technological missions. These include communications satellites like Starlink; space stations such as the ISS; scientific satellites like the Hubble; Earth observation satellites from companies like Planet Labs, Umbra, and HawkEye 360; GPS; miniature CubeSats for education and research; and military/defense satellites.

Loading next visibility...
GUANGCHUAN 02 details
Identifier
62112, 2024-221B
Orbit
LEO
Last TLE update13 hours ago
Origin
Flag of CNHONGQ? (CN / PRC)
ManufacturerCAST?
MissionOperational spacecraft
Bus & MotorHQ, Unknown motor
Mass~500 kg wet, ~500 kg dry
Launch date (UTC)
2024-11-27 (2 weeks ago)
Launch vehicle
ZHUQUE-2E
Launch site
Jiuquan Satellite Launch Center, China (JSC)
Object type
Payload
Rocket body
Debris
Shape & HBRUnknown
Radar Cross SectionLarge (>1 m²)

Expand to show TLE details & history

TLE from 13 hours ago
0 GUANGCHUAN 02
1 62112U 24221B   24348.39212912  .00041683  00000-0  59366-3 0  9997
2 62112  49.9642 337.3992 0104960 210.5306 148.9523 15.49587280  2509
Epoch: 2024-12-13T09:24Z
Definitive object data (Epoch: 2024-12-13T09:24:39.955Z)
Latitude-0.00002°
Longitude113.67393°
Altitude479.794 km
Speed7.593 km/s
True Right ascension22h 29m 35s
True Declination0° 00' 00"
Sunlit
Object was in daylight at TLE epoch
Visualization TLE readout
Latitude-34.00388°
Longitude-34.87978°
Altitude358.879 km
Speed7.733 km/s
Apparent Right ascension11h 03m 37s
Apparent Declination-39° 20' 54"
Sunlit
Object is in daylight
Visualization observer readout
Local Sidereal Time21:17:58
Azimuth263.058° W
Elevation-69.726°
Doppler factor1
Orbital elements
Apogee altitude490.059 km
Perigee altitude347.379 km
Semi-major axis6,796.856 km
Eccentricity0.010496
Inclination49.9642°
RAAN337.3992°
Arg. of periapsis210.5306°
True anomaly149.56571°
Mean anomaly148.9523°
Eccentric anomaly149.25969°
Mean motion3.8733 °/min
BSTAR0.00059366
Orbital period92.94 mins
Loading maneuver chart data...
Loading historical data...
Loading historical data...
Loading historical data...
Loading historical data...
Loading historical data...
Loading historical data...
Loading historical data...
Other satellites on launch #221 in the year 2024 (2024-11-27 UTC)

GUANGCHUAN 02 Visibility forecast

Observer location: undefined°, undefined

Span
Click to sort rows by Start time (UTC) header in descending order
Start Az.
Max El. time (UTC)
Max El. Az.
Max El.
End time (UTC)
End Az.
5 mins2024-12-14 02:39:01.203Z235.64° WSW2024-12-14 02:41:01.203Z315.02° NNW44.995°2024-12-14 02:44:01.203Z55.498° ENE
4 mins2024-12-14 04:17:01.203Z311.197° NW2024-12-14 04:18:01.203Z334.013° NNW21.239°2024-12-14 04:21:01.203Z34.678° NE
4 mins2024-12-14 07:32:01.203Z331.003° NNW2024-12-14 07:34:01.203Z23.591° NE26.544°2024-12-14 07:36:01.203Z75.757° E
5 mins2024-12-14 09:09:01.203Z283.09° WNW2024-12-14 09:11:01.203Z219.344° SW33.659°2024-12-14 09:14:01.203Z148.743° SSE
|